NUSTAR

Last updated on Sun Jun 21 2026 00:03:39 GMT+0000 (Coordinated Universal Time)

1 38358U 12031A 26171.50003471 .00006357 00000+0 33895-3 0 9992 2 38358 6.0277 9.2974 0007207 165.8701 326.2889 15.08829417 1303
UTC large
Height (km)
Speed (km/s)
/
Latitude / Longitude
Inclination (degrees)
Orbital Period (minutes)
Azimuth
Elevation
Range (km)
Doppler Factor

Next 0 passes for location: London (51.5072 / 0.1276)

No passes found over London.
NUSTAR